FENGYUN 1C DEB, 31157

Orbit data source: Space-Track

FENGYUN 1C DEB, 31157 is space debris in SSO originally from a launch on Mon, 10 May 1999 UTC launched from the Taiyaun Space Center, China (TSC). Fengyun 1C debris stems from the Chinese weather satellite Fengyun-1C, which was intentionally destroyed by a Chinese anti-satellite missile in 2007. This event dramatically increased the amount of space debris, with thousands of trackable fragments posing hazards to satellites and human spaceflight. The Fengyun 1C debris cloud has become a focal point in discussions about space sustainability and the need for international regulations to prevent the creation of new debris.

Loading next visibility...
Identifier
31157, 1999-025BHK
Orbit
SSO
Country
Flag of CNCN / PRC
Related business
Manufacturer
Unknown
Mission
Spacecraft
Bus & Motor
Unknown
Mass
Unknown
Launch date (UTC)
1999-05-10 (27 years ago)
Launch vehicle
Unknown
Launch site
Taiyaun Space Center, China (TSC)
Object type
Payload
Rocket body
Debris
Shape & HBR
Unknown shape, 0.1 m
Radar Cross Section
Medium (>0.1 m² and <1 m²)

Expand to show TLE details & history
Last TLE update: 2 days ago

TLE from 2 days ago
0 FENGYUN 1C DEB
1 31157U 99025BHK 26234.20972639  .00000345  00000-0  16450-3 0  9998
2 31157  98.5031 213.6887 0098702 311.3491  47.9227 14.22849225  5621
Epoch: 2026-08-22T05:02Z
TLE epoch observation values (Epoch: 2026-08-22T05:02:00.360Z)
Latitude
-0.00007°
Longitude
167.6638°
Altitude
771.456 km
Speed
7.493 km/s
True Right ascension
14h 14m 45s
True Declination
0° 00' 00"
Sunlit
Object was in daylight at epoch
Visualization orbit readout
Latitude
Unknown
Longitude
Unknown
Altitude
Unknown
Speed
Unknown
Apparent Right ascension
Unknown
Apparent Declination
Unknown
Sunlit
N/A
Visualization observer readout
Local Sidereal Time
21:13:32
Azimuth
Unknown
Elevation
Unknown
Doppler factor
Unknown
Orbital elements
Apogee altitude
883.854 km
Perigee altitude
741.901 km
Semi-major axis
7,191.015 km
Eccentricity
0.00987
Inclination
98.5031°
RAAN
213.6887°
Arg. of periapsis
311.3491°
True anomaly
48.76917°
Mean anomaly
47.9227°
Eccentric anomaly
48.34524°
Mean motion
3.55925 °/min
Orbital period
101.15 mins
BSTAR
0.0001645
Loading maneuver chart data...
Computing Atmospheric mass density...

Documentation

Showing up to 5 results
|